�������l�o���
Date,Time,MP-1(��Sv/h),MP-2(��Sv/h),MP-3(��Sv/h),MP-4(��Sv/h),MP-5(��Sv/h),MP-6(��Sv/h),MP-7(��Sv/h),MP-8(��Sv/h),����,����(m/s),���J
2022/01/22,00:00,0.580,0.871,0.553,1.076,0.752,0.351,0.610,0.580,�k��,4.5,��
2022/01/22,00:10,0.581,0.873,0.554,1.075,0.752,0.350,0.611,0.580,�k��,6.1,��
2022/01/22,00:20,0.583,0.871,0.553,1.077,0.752,0.350,0.610,0.580,�k��,5.6,��
2022/01/22,00:30,0.580,0.873,0.553,1.076,0.752,0.350,0.612,0.578,�k��,4.9,��
2022/01/22,00:40,0.582,0.872,0.555,1.077,0.751,0.350,0.609,0.579,�k��,4.5,��
2022/01/22,00:50,0.581,0.873,0.553,1.073,0.751,0.350,0.611,0.578,�k��,5.1,��
2022/01/22,01:00,0.581,0.870,0.555,1.077,0.753,0.350,0.609,0.579,���k��,5.0,��
2022/01/22,01:10,0.582,0.873,0.552,1.075,0.751,0.350,0.609,0.580,���k��,3.7,��
2022/01/22,01:20,0.581,0.871,0.554,1.076,0.753,0.350,0.610,0.578,���k��,3.2,��
2022/01/22,01:30,0.579,0.871,0.554,1.075,0.752,0.351,0.612,0.579,���k��,1.2,��
2022/01/22,01:40,0.581,0.873,0.554,1.073,0.752,0.350,0.610,0.580,�쐼,1.4,��
2022/01/22,01:50,0.581,0.870,0.554,1.076,0.753,0.350,0.610,0.579,�쐼,3.2,��
2022/01/22,02:00,0.581,0.871,0.555,1.074,0.750,0.350,0.610,0.579,�쐼,4.3,��
2022/01/22,02:10,0.582,0.871,0.554,1.076,0.752,0.349,0.610,0.579,���쐼,4.5,��
2022/01/22,02:20,0.580,0.871,0.554,1.074,0.751,0.351,0.610,0.578,���쐼,4.2,��
2022/01/22,02:30,0.580,0.873,0.554,1.076,0.751,0.348,0.611,0.581,���쐼,4.9,��
2022/01/22,02:40,0.580,0.872,0.553,1.077,0.753,0.351,0.611,0.578,���쐼,4.1,��
2022/01/22,02:50,0.582,0.872,0.553,1.074,0.754,0.348,0.610,0.578,���쐼,4.0,��
2022/01/22,03:00,0.581,0.871,0.555,1.074,0.752,0.351,0.609,0.579,��,4.2,��
2022/01/22,03:10,0.581,0.871,0.553,1.074,0.752,0.351,0.610,0.578,��,3.5,��
2022/01/22,03:20,0.581,0.871,0.552,1.075,0.753,0.350,0.609,0.580,��,3.8,��
2022/01/22,03:30,0.581,0.873,0.555,1.074,0.751,0.350,0.610,0.579,���쐼,3.6,��
2022/01/22,03:40,0.582,0.873,0.554,1.075,0.752,0.349,0.611,0.580,���쐼,5.1,��
2022/01/22,03:50,0.582,0.872,0.555,1.076,0.752,0.350,0.610,0.581,���쐼,4.6,��
2022/01/22,04:00,0.582,0.873,0.554,1.076,0.752,0.350,0.610,0.578,���쐼,4.4,��
2022/01/22,04:10,0.583,0.874,0.556,1.076,0.751,0.351,0.609,0.580,���쐼,4.7,��
2022/01/22,04:20,0.581,0.871,0.553,1.078,0.751,0.349,0.611,0.580,��,5.7,��
2022/01/22,04:30,0.580,0.872,0.554,1.076,0.752,0.350,0.611,0.580,��,4.8,��
2022/01/22,04:40,0.581,0.873,0.555,1.074,0.751,0.350,0.610,0.581,��,3.8,��
2022/01/22,04:50,0.581,0.874,0.555,1.077,0.750,0.350,0.608,0.580,��,2.9,��
2022/01/22,05:00,0.582,0.873,0.553,1.076,0.752,0.349,0.611,0.580,��,2.6,��
2022/01/22,05:10,0.581,0.872,0.555,1.076,0.749,0.350,0.611,0.579,��,4.1,��
2022/01/22,05:20,0.583,0.870,0.554,1.075,0.751,0.351,0.611,0.579,���쐼,4.4,��
2022/01/22,05:30,0.580,0.872,0.555,1.076,0.750,0.350,0.610,0.579,��,3.8,��
2022/01/22,05:40,0.580,0.872,0.553,1.075,0.751,0.350,0.611,0.579,��,4.4,��
2022/01/22,05:50,0.581,0.873,0.554,1.077,0.752,0.350,0.611,0.581,��,4.4,��
2022/01/22,06:00,0.581,0.872,0.554,1.073,0.753,0.351,0.610,0.579,��,3.9,��
2022/01/22,06:10,0.581,0.870,0.554,1.076,0.752,0.350,0.611,0.579,���쐼,5.3,��
2022/01/22,06:20,0.581,0.871,0.552,1.077,0.751,0.351,0.610,0.579,���쐼,5.8,��
2022/01/22,06:30,0.580,0.873,0.553,1.076,0.752,0.350,0.610,0.580,���쐼,5.8,��
2022/01/22,06:40,0.581,0.871,0.551,1.074,0.750,0.350,0.611,0.580,���쐼,5.6,��
2022/01/22,06:50,0.581,0.874,0.554,1.075,0.751,0.351,0.610,0.580,���쐼,6.3,��
2022/01/22,07:00,0.581,0.871,0.554,1.075,0.752,0.350,0.610,0.579,���쐼,6.6,��
2022/01/22,07:10,0.582,0.874,0.554,1.076,0.751,0.350,0.611,0.579,���쐼,6.4,��
2022/01/22,07:20,0.582,0.872,0.554,1.075,0.752,0.349,0.612,0.580,���쐼,6.0,��
2022/01/22,07:30,0.581,0.873,0.554,1.075,0.750,0.351,0.612,0.579,���쐼,5.6,��
2022/01/22,07:40,0.582,0.872,0.555,1.075,0.752,0.350,0.610,0.579,���쐼,6.2,��
2022/01/22,07:50,0.581,0.873,0.554,1.076,0.749,0.350,0.611,0.581,���쐼,5.4,��
2022/01/22,08:00,0.580,0.871,0.555,1.078,0.753,0.349,0.610,0.579,���쐼,4.7,��
2022/01/22,08:10,0.584,0.873,0.557,1.077,0.751,0.351,0.612,0.582,���쐼,4.6,��
2022/01/22,08:20,0.584,0.873,0.556,1.078,0.752,0.350,0.612,0.580,���쐼,3.0,��
2022/01/22,08:30,0.582,0.874,0.554,1.075,0.751,0.351,0.611,0.580,��,3.8,��
2022/01/22,08:40,0.582,0.873,0.553,1.077,0.752,0.350,0.610,0.580,��,4.4,��
2022/01/22,08:50,0.583,0.873,0.554,1.077,0.750,0.352,0.611,0.579,��,5.4,��
2022/01/22,09:00,0.583,0.873,0.555,1.076,0.755,0.352,0.614,0.579,��,5.5,��
2022/01/22,09:10,0.582,0.874,0.555,1.075,0.752,0.350,0.611,0.579,���쐼,5.2,��
2022/01/22,09:20,0.583,0.872,0.556,1.076,0.750,0.352,0.613,0.579,��,4.6,��
2022/01/22,09:30,0.582,0.874,0.555,1.076,0.751,0.350,0.613,0.580,��,3.5,��
2022/01/22,09:40,0.582,0.875,0.555,1.077,0.752,0.351,0.612,0.583,���k��,4.2,��
2022/01/22,09:50,0.583,0.875,0.555,1.078,0.751,0.350,0.613,0.580,��,4.8,��
2022/01/22,10:00,0.582,0.875,0.554,1.074,0.751,0.351,0.611,0.581,���k��,4.2,��
2022/01/22,10:10,0.582,0.874,0.556,1.075,0.752,0.352,0.608,0.580,���k��,4.8,��
2022/01/22,10:20,0.582,0.873,0.556,1.076,0.753,0.352,0.611,0.580,���k��,5.2,��
2022/01/22,10:30,0.582,0.874,0.555,1.077,0.752,0.351,0.610,0.580,��,5.0,��
2022/01/22,10:40,0.583,0.873,0.555,1.078,0.751,0.350,0.611,0.581,��,5.3,��
2022/01/22,10:50,0.584,0.874,0.556,1.076,0.752,0.351,0.609,0.580,��,5.0,��
2022/01/22,11:00,0.583,0.871,0.555,1.079,0.755,0.352,0.611,0.580,���k��,5.5,��
2022/01/22,11:10,0.583,0.872,0.556,1.075,0.754,0.351,0.609,0.581,��,2.9,��
2022/01/22,11:20,0.586,0.874,0.556,1.078,0.752,0.352,0.610,0.580,��,3.9,��
2022/01/22,11:30,0.584,0.872,0.555,1.078,0.752,0.350,0.610,0.581,��,4.0,��
2022/01/22,11:40,0.585,0.871,0.556,1.077,0.752,0.353,0.610,0.582,���k��,3.1,��
2022/01/22,11:50,0.585,0.873,0.556,1.078,0.756,0.350,0.608,0.581,��,3.1,��
2022/01/22,12:00,0.587,0.870,0.556,1.077,0.756,0.351,0.611,0.580,�k��,1.5,��
2022/01/22,12:10,0.586,0.874,0.556,1.079,0.753,0.351,0.611,0.581,��,4.7,��
2022/01/22,12:20,0.585,0.875,0.555,1.078,0.754,0.352,0.610,0.580,��,5.6,��
2022/01/22,12:30,0.585,0.874,0.556,1.078,0.755,0.351,0.610,0.582,��,5.8,��
2022/01/22,12:40,0.584,0.876,0.558,1.077,0.755,0.351,0.612,0.582,��,6.4,��
2022/01/22,12:50,0.586,0.876,0.557,1.080,0.755,0.352,0.609,0.581,���쐼,5.1,��
2022/01/22,13:00,0.587,0.875,0.556,1.077,0.756,0.351,0.610,0.581,��,4.7,��
2022/01/22,13:10,0.587,0.875,0.557,1.077,0.755,0.351,0.612,0.580,���k��,3.9,��
2022/01/22,13:20,0.585,0.874,0.557,1.078,0.756,0.352,0.611,0.580,�k��,5.2,��
2022/01/22,13:30,0.586,0.874,0.559,1.078,0.754,0.351,0.611,0.579,�k�k��,4.6,��
2022/01/22,13:40,0.585,0.873,0.556,1.076,0.755,0.352,0.612,0.582,�k��,4.6,��
2022/01/22,13:50,0.587,0.873,0.558,1.077,0.755,0.351,0.612,0.582,���k��,5.0,��
2022/01/22,14:00,0.585,0.875,0.556,1.078,0.755,0.351,0.611,0.581,��,3.9,��
2022/01/22,14:10,0.586,0.875,0.557,1.078,0.757,0.351,0.612,0.582,��,3.4,��
2022/01/22,14:20,0.585,0.876,0.558,1.078,0.755,0.350,0.613,0.581,��,3.7,��
2022/01/22,14:30,0.586,0.876,0.555,1.078,0.755,0.351,0.612,0.581,���쐼,5.2,��
2022/01/22,14:40,0.584,0.875,0.556,1.077,0.757,0.351,0.612,0.582,��,4.5,��
2022/01/22,14:50,0.586,0.877,0.557,1.080,0.754,0.350,0.613,0.582,��,5.6,��
2022/01/22,15:00,0.585,0.875,0.557,1.081,0.753,0.351,0.615,0.584,��,5.0,��
2022/01/22,15:10,0.586,0.875,0.556,1.079,0.756,0.351,0.613,0.583,���k��,4.7,��
2022/01/22,15:20,0.585,0.876,0.557,1.080,0.754,0.350,0.613,0.582,��,3.5,��
2022/01/22,15:30,0.585,0.875,0.557,1.079,0.757,0.350,0.613,0.580,���k��,3.3,��
2022/01/22,15:40,0.585,0.874,0.556,1.077,0.757,0.352,0.612,0.581,�k�k��,4.0,��
2022/01/22,15:50,0.585,0.878,0.556,1.078,0.757,0.352,0.612,0.581,�k�k��,4.6,��
2022/01/22,16:00,0.584,0.876,0.556,1.079,0.756,0.352,0.612,0.582,�k�k��,5.0,��
2022/01/22,16:10,0.585,0.876,0.555,1.077,0.756,0.350,0.613,0.581,�k�k��,3.9,��
2022/01/22,16:20,0.583,0.876,0.557,1.078,0.755,0.351,0.612,0.581,�k�k��,3.4,��
2022/01/22,16:30,0.584,0.874,0.556,1.078,0.756,0.352,0.613,0.581,�k��,2.6,��
2022/01/22,16:40,0.584,0.874,0.556,1.077,0.755,0.351,0.612,0.581,�k��,3.4,��
2022/01/22,16:50,0.584,0.874,0.557,1.077,0.755,0.351,0.613,0.580,�k��,2.8,��
2022/01/22,17:00,0.586,0.875,0.556,1.077,0.756,0.351,0.612,0.581,�k��,2.6,��
2022/01/22,17:10,0.583,0.876,0.555,1.079,0.755,0.351,0.612,0.581,�k��,2.0,��
2022/01/22,17:20,0.583,0.876,0.555,1.079,0.754,0.351,0.613,0.581,���k��,2.3,��
2022/01/22,17:30,0.584,0.875,0.554,1.078,0.754,0.351,0.613,0.580,���k��,2.0,��
2022/01/22,17:40,0.583,0.875,0.557,1.078,0.754,0.351,0.612,0.582,���k��,1.7,��
2022/01/22,17:50,0.583,0.875,0.557,1.078,0.756,0.350,0.613,0.579,���k��,1.5,��
2022/01/22,18:00,0.584,0.875,0.556,1.077,0.757,0.351,0.611,0.581,���k��,1.9,��
2022/01/22,18:10,0.584,0.874,0.556,1.079,0.755,0.350,0.612,0.581,���k��,1.7,��
2022/01/22,18:20,0.582,0.876,0.555,1.077,0.755,0.351,0.612,0.580,-,CALM,��
2022/01/22,18:30,0.584,0.875,0.555,1.079,0.755,0.351,0.612,0.581,���k��,2.8,��
2022/01/22,18:40,0.581,0.874,0.555,1.078,0.754,0.351,0.611,0.581,���k��,4.3,��
2022/01/22,18:50,0.583,0.873,0.557,1.078,0.755,0.352,0.611,0.581,���k��,4.7,��
2022/01/22,19:00,0.583,0.874,0.556,1.079,0.754,0.351,0.611,0.581,��,5.2,��
2022/01/22,19:10,0.582,0.874,0.553,1.078,0.754,0.350,0.609,0.580,��,6.1,��
2022/01/22,19:20,0.584,0.875,0.557,1.078,0.753,0.350,0.611,0.580,��,5.5,��
2022/01/22,19:30,0.582,0.874,0.555,1.077,0.753,0.350,0.611,0.581,��,5.7,��
2022/01/22,19:40,0.583,0.874,0.555,1.078,0.754,0.350,0.610,0.580,��,7.0,��
2022/01/22,19:50,0.582,0.876,0.556,1.078,0.753,0.350,0.611,0.581,��,7.3,��
2022/01/22,20:00,0.584,0.875,0.554,1.078,0.754,0.350,0.611,0.580,��,7.2,��
2022/01/22,20:10,0.583,0.876,0.555,1.078,0.754,0.350,0.612,0.579,��,6.7,��
2022/01/22,20:20,0.581,0.873,0.556,1.079,0.755,0.349,0.611,0.579,��,6.3,��
2022/01/22,20:30,0.582,0.873,0.554,1.078,0.754,0.350,0.610,0.580,��,6.3,��
2022/01/22,20:40,0.584,0.877,0.555,1.075,0.754,0.350,0.609,0.579,��,5.7,��
2022/01/22,20:50,0.582,0.876,0.557,1.078,0.754,0.349,0.610,0.578,��,6.7,��
2022/01/22,21:00,0.583,0.874,0.556,1.078,0.754,0.350,0.609,0.579,��,6.0,��
2022/01/22,21:10,0.584,0.875,0.557,1.079,0.754,0.351,0.611,0.581,��,5.6,��
2022/01/22,21:20,0.582,0.874,0.556,1.077,0.754,0.350,0.610,0.581,���k��,6.6,��
2022/01/22,21:30,0.583,0.876,0.555,1.078,0.754,0.349,0.611,0.579,���k��,8.4,��
2022/01/22,21:40,0.582,0.874,0.554,1.077,0.754,0.349,0.610,0.579,�k��,9.5,��
2022/01/22,21:50,0.583,0.875,0.555,1.078,0.753,0.350,0.611,0.581,�k��,7.7,��
2022/01/22,22:00,0.584,0.876,0.555,1.079,0.754,0.351,0.612,0.580,�k��,7.0,��
2022/01/22,22:10,0.583,0.874,0.555,1.078,0.755,0.350,0.612,0.579,�k��,7.4,��
2022/01/22,22:20,0.582,0.875,0.554,1.076,0.753,0.350,0.612,0.581,�k��,7.4,��
2022/01/22,22:30,0.584,0.874,0.555,1.076,0.752,0.348,0.611,0.579,�k��,6.8,��
2022/01/22,22:40,0.583,0.873,0.556,1.079,0.756,0.350,0.612,0.579,�k��,3.5,��
2022/01/22,22:50,0.584,0.874,0.555,1.077,0.753,0.349,0.611,0.580,�k�k��,2.3,��
2022/01/22,23:00,0.584,0.874,0.556,1.078,0.754,0.351,0.611,0.581,�k,2.9,��
2022/01/22,23:10,0.582,0.874,0.556,1.077,0.752,0.350,0.611,0.580,�k,3.5,��
2022/01/22,23:20,0.585,0.874,0.555,1.077,0.752,0.350,0.611,0.580,�k,3.3,��
2022/01/22,23:30,0.583,0.875,0.554,1.080,0.753,0.349,0.610,0.580,�k,3.7,��
2022/01/22,23:40,0.583,0.875,0.553,1.080,0.753,0.351,0.610,0.580,�k,3.8,��
2022/01/22,23:50,0.582,0.872,0.554,1.076,0.754,0.350,0.611,0.579,�k,3.8,��
